GW6002 Weather Reports


time (UTC)temp
C
wind
direction
speed
KPH
gust
KPH
rain 1hr
cm
rain 24hr
cm
rain mn
cm
humidity
%
barometer
mb
20260906023621 11 269 14.5 17.7 0.00 0.00 0.00 93 1006.3
20260906023120 11 256 16.1 17.7 0.00 0.00 0.00 93 1006.1
20260906022615 11 283 17.7 20.9 0.00 0.00 0.00 93 1006.2
20260906022111 11 261 12.9 16.1 0.00 0.00 0.00 93 1006.3
20260906021607 11 258 9.7 12.9 0.00 0.00 0.00 93 1006.2
20260906021106 11 256 17.7 20.9 0.00 0.00 0.00 93 1006.0
20260906020605 11 265 14.5 17.7 0.00 0.00 0.00 93 1005.8
20260906020100 11 252 12.9 16.1 0.00 0.00 0.00 93 1005.9
20260906015600 11 258 14.5 17.7 0.00 0.00 0.00 93 1005.9
20260906015059 11 255 11.3 14.5 0.00 0.00 0.00 93 1005.7
20260906014554 11 266 14.5 17.7 0.00 0.00 0.00 92 1006.0
20260906014050 12 258 9.7 16.1 0.00 0.00 0.00 92 1005.7
20260906013545 12 264 19.3 24.1 0.00 0.00 0.00 92 1005.9
20260906013040 12 254 20.9 27.4 0.00 0.00 0.00 91 1006.0
20260906012535 12 290 17.7 24.1 0.00 0.00 0.00 90 1005.8
20260906012035 12 265 27.4 30.6 0.00 0.00 0.00 90 1005.8
20260906011531 12 274 20.9 25.7 0.00 0.00 0.00 90 1006.3
20260906011031 12 253 20.9 27.4 0.00 0.00 0.00 89 1006.0
20260906010526 12 280 17.7 24.1 0.00 0.00 0.00 90 1006.0
20260906010022 12 282 22.5 25.7 0.00 0.00 0.00 90 1006.1
20260906005521 12 245 20.9 27.4 0.00 0.00 0.00 90 1005.9
20260906005020 12 263 20.9 25.7 0.00 0.00 0.00 90 1005.9
20260906004515 12 267 17.7 25.7 0.00 0.00 0.00 90 1005.9
20260906004010 12 270 14.5 24.1 0.00 0.00 0.00 90 1005.9
20260906003505 12 261 16.1 29.0 0.00 0.00 0.00 89 1005.9
20260906003001 12 266 22.5 27.4 0.00 0.00 0.00 89 1006.1
20260906002501 12 259 14.5 17.7 0.00 0.00 0.00 89 1006.0
20260906001955 12 255 14.5 24.1 0.00 0.00 0.00 89 1006.2
20260906001451 12 274 16.1 24.1 0.00 0.00 0.00 90 1005.7
20260906000945 12 269 20.9 24.1 0.00 0.00 0.00 90 1005.6
20260906000441 12 272 11.3 14.5 0.00 0.00 0.00 89 1005.8
20260905235936 12 280 14.5 20.9 0.00 0.00 0.00 89 1006.1
20260905235436 12 286 12.9 24.1 0.00 0.00 0.00 89 1005.7
20260905234931 12 268 14.5 25.7 0.00 0.00 0.00 89 1005.9
20260905234426 12 252 17.7 22.5 0.00 0.00 0.00 89 1006.1
20260905233920 12 276 14.5 24.1 0.00 0.00 0.00 89 1006.0
20260905233416 12 265 11.3 17.7 0.00 0.00 0.00 89 1006.1
20260905232915 12 267 16.1 25.7 0.00 0.00 0.00 89 1005.9
20260905232411 12 273 16.1 22.5 0.00 0.00 0.00 89 1005.8
20260905231906 12 269 11.3 16.1 0.00 0.00 0.00 89 1005.8
20260905231402 12 263 11.3 17.7 0.00 0.00 0.00 89 1005.9
20260905230859 12 248 22.5 25.7 0.00 0.00 0.00 88 1005.6
20260905230356 12 268 19.3 24.1 0.00 0.00 0.00 88 1005.8
20260905225855 12 257 25.7 33.8 0.00 0.00 0.00 88 1005.7
20260905225350 12 254 17.7 22.5 0.00 0.00 0.00 88 1005.8
20260905224845 12 264 27.4 30.6 0.00 0.00 0.00 88 1005.7
20260905224341 12 260 12.9 22.5 0.00 0.00 0.00 88 1005.7
20260905223836 12 257 20.9 35.4 0.00 0.00 0.00 88 1005.7
20260905223333 12 268 17.7 22.5 0.00 0.00 0.00 88 1005.7
20260905222828 12 262 11.3 20.9 0.00 0.00 0.00 88 1005.6
20260905222327 12 266 12.9 16.1 0.00 0.00 0.00 88 1005.8
20260905221818 12 245 14.5 14.5 0.00 0.00 0.00 88 1005.7
20260905221314 12 269 19.3 27.4 0.00 0.00 0.00 88 1005.8
20260905220810 12 261 12.9 20.9 0.00 0.00 0.00 88 1005.8
20260905220306 12 265 12.9 24.1 0.00 0.00 0.00 88 1005.8
20260905215805 12 247 11.3 17.7 0.00 0.00 0.00 88 1005.8
20260905215301 12 279 17.7 20.9 0.00 0.00 0.00 88 1005.6
20260905214756 12 267 12.9 17.7 0.00 0.00 0.00 87 1006.0
20260905214252 12 247 17.7 22.5 0.00 0.00 0.00 88 1005.8
20260905213747 12 269 11.3 20.9 0.00 0.00 0.00 87 1005.8
20260905213243 12 264 14.5 20.9 0.00 0.00 0.00 87 1005.9
20260905212738 12 260 20.9 24.1 0.00 0.00 0.00 87 1006.0
20260905212237 12 259 11.3 22.5 0.00 0.00 0.00 87 1005.7
20260905211736 12 282 12.9 20.9 0.00 0.00 0.00 87 1005.9
20260905211232 12 255 11.3 17.7 0.00 0.00 0.00 87 1005.8
20260905210729 12 263 16.1 20.9 0.00 0.00 0.00 87 1005.7
20260905210228 13 263 14.5 20.9 0.00 0.00 0.00 87 1005.9
20260905205727 13 264 17.7 20.9 0.00 1.14 1.14 87 1005.5
20260905205222 13 275 17.7 30.6 0.00 1.14 1.14 87 1005.9
20260905204722 13 268 9.7 22.5 0.00 1.14 1.14 87 1005.8
20260905204218 13 169 12.9 17.7 0.00 1.14 1.14 87 1005.8
20260905203717 13 253 24.1 25.7 0.00 1.14 1.14 87 1005.8
20260905203213 13 242 11.3 14.5 0.00 1.14 1.14 88 1006.0
20260905202708 13 268 11.3 14.5 0.00 1.14 1.14 88 1006.1
20260905202203 13 263 14.5 17.7 0.00 1.14 1.14 87 1006.0
20260905201659 13 255 19.3 22.5 0.00 1.14 1.14 87 1005.8
20260905201158 13 256 14.5 17.7 0.00 1.14 1.14 88 1005.9
20260905200654 13 257 11.3 14.5 0.00 1.14 1.14 87 1006.0
20260905200149 13 273 11.3 14.5 0.00 1.14 1.14 87 1006.0
20260905195647 13 266 14.5 17.7 0.00 1.14 1.14 87 1005.8
20260905195143 13 254 14.5 20.9 0.00 1.14 1.14 88 1005.9
20260905194637 13 263 14.5 16.1 0.00 1.14 1.14 87 1006.0
20260905194132 13 239 14.5 14.5 0.00 1.14 1.14 87 1006.0
20260905193627 13 271 12.9 16.1 0.00 1.14 1.14 87 1005.9
20260905193127 13 267 17.7 24.1 0.00 1.14 1.14 87 1006.0
20260905192622 13 262 24.1 25.7 0.00 1.14 1.14 88 1006.0
20260905192119 13 252 12.9 17.7 0.00 1.14 1.14 88 1006.1
20260905191618 13 247 14.5 20.9 0.00 1.14 1.14 88 1006.0
20260905191116 12 267 19.3 24.1 0.00 1.14 1.14 88 1005.8
20260905190614 13 239 11.3 24.1 0.00 1.14 1.14 88 1005.7
20260905190109 12 240 9.7 20.9 0.00 1.14 1.14 89 1005.6
20260905185608 13 239 14.5 16.1 0.00 1.14 1.14 89 1005.8
20260905185108 13 267 12.9 22.5 0.00 1.14 1.14 89 1005.6
20260905184602 13 263 16.1 17.7 0.00 1.14 1.14 89 1005.6
20260905184101 13 256 14.5 16.1 0.00 1.14 1.14 89 1005.5
20260905183601 13 258 12.9 17.7 0.00 1.14 1.14 89 1005.7
20260905183057 13 259 11.3 17.7 0.00 1.14 1.14 89 1005.8
20260905182556 13 260 11.3 14.5 0.00 1.14 1.14 89 1005.6
20260905182051 13 260 14.5 17.7 0.00 1.14 1.14 89 1005.8
20260905181551 13 233 11.3 22.5 0.00 1.14 1.14 89 1005.7
20260905181050 13 266 12.9 16.1 0.00 1.14 1.14 88 1005.5
20260905180544 13 243 12.9 20.9 0.00 1.14 1.14 88 1005.7
20260905180040 13 244 16.1 20.9 0.00 1.14 1.14 88 1005.6
20260905175539 13 267 17.7 22.5 0.00 1.14 1.14 88 1005.7
20260905175035 13 254 16.1 20.9 0.00 1.14 1.14 88 1005.8
20260905174530 13 250 12.9 20.9 0.00 1.14 1.14 88 1005.5
20260905174026 13 265 14.5 20.9 0.00 1.14 1.14 88 1005.5
20260905173522 13 251 22.5 25.7 0.00 1.14 1.14 87 1005.5
20260905173017 13 265 14.5 22.5 0.00 1.14 1.14 88 1005.1
20260905172515 13 217 12.9 22.5 0.00 1.14 1.14 88 1005.2
20260905172011 13 252 9.7 12.9 0.00 1.14 1.14 89 1005.1
20260905171508 13 251 12.9 14.5 0.00 1.14 1.14 89 1005.1
20260905171004 13 248 12.9 14.5 0.00 1.14 1.14 88 1005.1
20260905170500 13 242 14.5 20.9 0.00 1.14 1.14 89 1005.3
20260905165959 13 261 8.0 16.1 0.00 1.14 1.14 88 1005.1
20260905165455 13 266 9.7 22.5 0.00 1.14 1.14 88 1005.1
20260905164950 13 286 12.9 20.9 0.00 1.14 1.14 89 1005.0
20260905164449 13 249 16.1 20.9 0.00 1.14 1.14 89 1004.9
20260905163944 13 267 16.1 17.7 0.00 1.14 1.14 89 1004.7
20260905163441 13 248 14.5 17.7 0.00 1.14 1.14 88 1004.8
20260905162937 13 277 12.9 27.4 0.00 1.14 1.14 88 1004.7
20260905162432 13 264 19.3 24.1 0.00 1.14 1.14 88 1004.9
20260905161927 13 261 24.1 29.0 0.00 1.14 1.14 88 1004.7
20260905161426 13 235 17.7 20.9 0.00 1.14 1.14 88 1004.5
20260905160924 13 257 16.1 30.6 0.00 1.14 1.14 88 1004.6
20260905160419 13 264 11.3 17.7 0.00 1.14 1.14 89 1004.9
20260905155918 13 259 14.5 22.5 0.00 1.14 1.14 88 1004.8
20260905155418 13 269 17.7 27.4 0.00 1.14 1.14 88 1004.5
20260905154917 13 257 14.5 22.5 0.13 1.14 1.14 88 1004.6
20260905154413 13 270 24.1 33.8 0.13 1.14 1.14 88 1004.8
20260905153908 13 253 24.1 37.0 0.00 1.12 1.12 87 1004.6
20260905153404 14 260 24.1 30.6 0.00 1.12 1.12 85 1004.3
20260905152904 14 239 22.5 27.4 0.00 1.12 1.12 85 1004.4
20260905152403 14 268 17.7 33.8 0.00 1.12 1.12 85 1004.4
20260905151858 14 254 11.3 20.9 0.00 1.12 1.12 86 1004.3
20260905151355 14 257 11.3 17.7 0.00 1.12 1.12 87 1004.1
20260905150855 13 284 6.4 16.1 0.00 1.12 1.12 88 1004.2
20260905150354 13 256 11.3 25.7 0.00 1.12 1.12 88 1004.2
20260905145851 13 295 11.3 20.9 0.00 1.12 1.12 89 1004.0
20260905145346 13 263 9.7 14.5 0.18 1.12 1.12 90 1004.0
20260905144845 13 264 19.3 27.4 0.48 1.12 1.12 91 1004.1
20260905144341 13 303 11.3 14.5 0.36 1.07 1.07 91 1004.0
20260905143839 13 282 9.7 16.1 0.30 1.04 1.04 91 1004.0
20260905143334 13 321 9.7 12.9 0.13 1.02 1.02 90 1003.9
20260905142833 13 326 12.9 16.1 0.00 0.99 0.99 89 1003.8
20260905142327 13 295 16.1 20.9 0.18 0.99 0.99 88 1004.0
20260905141823 13 309 19.3 22.5 0.18 0.99 0.99 89 1004.1
20260905141324 13 304 24.1 29.0 0.00 0.97 0.97 87 1003.9
20260905140820 13 308 16.1 27.4 0.00 0.97 0.97 85 1003.8
20260905140319 14 314 24.1 37.0 0.00 0.97 0.97 84 1003.9
20260905135818 14 323 19.3 24.1 0.13 0.97 0.97 83 1003.8
20260905135314 16 322 30.6 51.5 0.00 0.94 0.94 78 1003.9
20260905134810 17 280 27.4 30.6 0.00 0.94 0.94 72 1003.1
20260905134308 17 251 24.1 40.2 0.00 0.94 0.94 72 1003.1
20260905133808 17 261 17.7 40.2 0.00 0.94 0.94 72 1002.8
20260905133304 17 289 27.4 40.2 0.00 0.94 0.94 72 1002.7
20260905132803 16 303 25.7 33.8 0.00 0.94 0.94 73 1002.7
20260905132258 17 273 20.9 35.4 0.00 0.94 0.94 74 1002.8
20260905131753 17 263 20.9 27.4 0.00 0.94 0.94 74 1002.7
20260905131249 17 283 29.0 30.6 0.00 0.94 0.94 75 1002.7
20260905130743 16 278 24.1 37.0 0.00 0.94 0.94 75 1002.5
20260905130243 16 280 24.1 33.8 0.00 0.94 0.94 78 1002.4
20260905125738 16 253 27.4 46.7 0.00 0.94 0.94 77 1002.8
20260905125233 16 233 24.1 40.2 0.00 0.94 0.94 77 1002.6
20260905124730 16 243 24.1 37.0 0.00 0.94 0.94 79 1002.3
20260905124225 16 266 19.3 33.8 0.00 0.94 0.94 79 1002.4
20260905123720 16 263 24.1 43.5 0.00 0.94 0.94 78 1002.6
20260905123217 16 270 20.9 30.6 0.00 0.94 0.94 80 1002.6
20260905122716 16 238 19.3 25.7 0.00 0.94 0.94 84 1002.4
20260905122211 16 256 22.5 33.8 0.00 0.94 0.94 84 1002.5
20260905121706 16 279 22.5 29.0 0.00 0.94 0.94 85 1002.4
20260905121202 16 270 22.5 30.6 0.00 0.94 0.94 85 1002.5
20260905120702 16 265 14.5 25.7 0.00 0.94 0.94 87 1002.4
20260905120156 15 260 22.5 29.0 0.18 0.94 0.94 87 1002.3
20260905115655 15 259 19.3 35.4 0.30 0.94 0.94 89 1002.4
20260905115150 15 263 19.3 29.0 0.13 0.91 0.91 90 1002.2
20260905114650 15 255 17.7 25.7 0.00 0.89 0.89 88 1002.4
20260905114148 15 273 16.1 17.7 0.00 0.89 0.89 89 1002.3
20260905113643 15 261 12.9 17.7 0.00 0.89 0.89 91 1002.4
20260905113139 15 270 12.9 16.1 0.00 0.89 0.89 93 1002.3
20260905112633 14 258 8.0 9.7 0.00 0.89 0.89 92 1002.4
20260905112129 14 283 12.9 14.5 0.18 0.89 0.89 91 1002.4
20260905111624 14 292 11.3 17.7 0.00 0.86 0.86 91 1002.3
20260905111123 13 262 20.9 33.8 1.50 0.86 0.86 91 1002.0
20260905110622 14 333 22.5 27.4 1.50 0.86 0.86 88 1002.3
20260905110117 14 278 14.5 20.9 0.00 0.61 0.61 91 1002.3
20260905105612 14 280 14.5 20.9 0.00 0.61 0.61 91 1002.0
20260905105111 14 281 17.7 17.7 0.00 0.61 0.61 90 1002.2
20260905104607 14 283 14.5 17.7 0.00 0.61 0.61 90 1002.2
20260905104107 13 265 22.5 24.1 0.48 0.61 0.61 92 1002.1
20260905103556 13 272 20.9 37.0 1.19 0.61 0.61 92 1002.1
20260905103053 13 274 17.7 35.4 1.07 0.53 0.53 92 1002.3
20260905102548 13 259 27.4 35.4 0.36 0.41 0.41 92 1002.0
20260905102044 14 256 22.5 30.6 0.00 0.36 0.36 90 1001.8
20260905101543 14 282 17.7 20.9 0.00 0.36 0.36 91 1002.0
20260905101040 14 266 14.5 24.1 0.13 0.36 0.36 90 1001.9
20260905100537 14 287 24.1 30.6 0.13 0.36 0.36 89 1001.7
20260905100037 15 256 22.5 37.0 0.00 0.33 0.33 87 1001.7
20260905095532 15 265 24.1 33.8 0.00 0.33 0.33 84 1001.7
20260905095027 15 285 20.9 30.6 0.00 0.33 0.33 84 1001.6
20260905094522 15 259 17.7 24.1 0.00 0.33 0.33 85 1001.3
20260905094021 15 267 25.7 40.2 0.00 0.33 0.33 84 1001.5
20260905093515 15 282 30.6 37.0 0.00 0.33 0.33 85 1001.3
20260905093012 15 274 29.0 33.8 0.00 0.33 0.33 86 1001.1
20260905092506 16 278 38.6 48.3 0.00 0.33 0.33 79 1001.1
20260905092002 16 260 33.8 41.8 0.00 0.33 0.33 79 1001.0
20260905091501 16 244 27.4 33.8 0.00 0.33 0.33 79 1000.8
20260905090956 16 241 19.3 30.6 0.00 0.33 0.33 79 1000.8
20260905090451 15 258 22.5 25.7 0.00 0.33 0.33 81 1001.0
20260905085950 16 253 27.4 41.8 0.00 0.33 0.33 78 1000.6
20260905085450 16 287 27.4 30.6 0.00 0.33 0.33 80 1000.6
20260905084946 16 256 41.8 48.3 0.00 0.33 0.33 80 1000.8
20260905084445 16 289 29.0 43.5 0.00 0.33 0.33 80 1000.3
20260905083945 15 255 27.4 35.4 0.00 0.33 0.33 82 1000.8
20260905083441 15 296 29.0 48.3 0.00 0.33 0.33 82 1000.6
20260905082936 15 279 32.2 35.4 0.00 0.33 0.33 83 1000.4
20260905082432 15 271 35.4 38.6 0.00 0.33 0.33 85 1000.4
20260905081927 15 262 17.7 30.6 0.00 0.33 0.33 86 1000.4
20260905081422 15 264 30.6 37.0 0.00 0.33 0.33 88 1000.3
20260905080921 15 235 24.1 30.6 0.00 0.33 0.33 90 1000.1
20260905080416 15 275 37.0 46.7 0.00 0.33 0.33 87 999.9
20260905075914 16 260 33.8 53.1 0.00 0.33 0.33 84 999.5
20260905075409 15 315 30.6 41.8 0.00 0.33 0.33 85 999.4
20260905074908 15 273 24.1 33.8 0.00 0.33 0.33 87 999.6
20260905074404 15 272 37.0 48.3 0.00 0.33 0.33 87 999.4
20260905073900 15 280 20.9 49.9 0.00 0.33 0.33 88 999.6
20260905073355 15 271 19.3 27.4 0.00 0.33 0.33 88 999.4
20260905072850 15 272 24.1 35.4 0.00 0.33 0.33 87 999.3
20260905072345 15 297 19.3 27.4 0.00 0.33 0.33 88 999.1
20260905071841 15 278 32.2 38.6 0.00 0.33 0.33 87 999.2
20260905071338 15 288 37.0 40.2 0.00 0.33 0.33 88 998.7
20260905070837 15 274 40.2 43.5 0.00 0.33 0.33 90 998.8
20260905070333 15 258 17.7 27.4 0.00 0.33 0.33 91 998.8
20260905065832 15 249 27.4 30.6 0.00 0.33 0.33 91 999.0
20260905065331 15 283 30.6 37.0 0.00 0.33 0.33 91 998.7
20260905064826 15 254 25.7 30.6 0.00 0.33 0.33 92 998.8
20260905064322 15 245 17.7 29.0 0.00 0.33 0.33 92 998.6
20260905063820 15 259 16.1 25.7 0.00 0.33 0.33 92 998.4
20260905063316 15 270 22.5 27.4 0.00 0.33 0.33 93 998.4
20260905062813 15 266 22.5 29.0 0.00 0.33 0.33 94 998.4
20260905062307 14 254 17.7 20.9 0.00 0.33 0.33 94 998.5
20260905061802 14 249 6.4 12.9 0.00 0.33 0.33 94 998.3
20260905061301 14 272 9.7 16.1 0.00 0.33 0.33 93 998.1
20260905060756 14 276 11.3 14.5 0.00 0.33 0.33 93 998.2
20260905060253 14 274 9.7 16.1 0.00 0.33 0.33 93 998.3
20260905055751 14 249 12.9 14.5 0.18 0.33 0.33 93 998.1
20260905055246 14 240 11.3 14.5 0.30 0.33 0.33 94 998.0
20260905054741 14 249 14.5 16.1 0.13 0.30 0.30 94 997.9
20260905054238 14 257 9.7 17.7 0.18 0.28 0.28 95 997.9
20260905053737 14 250 12.9 20.9 0.18 0.28 0.28 95 998.1
20260905053233 14 241 9.7 14.5 0.00 0.25 0.25 95 997.9
20260905052732 14 247 14.5 24.1 0.00 0.25 0.25 96 997.8
20260905052227 14 237 12.9 20.9 0.00 0.25 0.25 96 997.8
20260905051726 14 252 16.1 24.1 0.00 0.25 0.25 97 997.7
20260905051223 13 248 16.1 20.9 0.13 0.25 0.25 97 997.7
20260905050719 13 218 8.0 12.9 0.13 0.25 0.25 97 997.5
20260905050216 13 198 8.0 11.3 0.00 0.23 0.23 97 997.5
20260905045715 13 218 9.7 12.9 0.00 0.23 0.23 97 997.8
20260905045212 13 207 11.3 14.5 0.00 0.23 0.23 96 997.6
20260905044712 13 220 4.8 12.9 0.18 0.23 0.23 96 997.7
20260905044208 13 234 9.7 11.3 0.30 0.23 0.23 96 997.9
20260905043706 13 234 9.7 12.9 0.30 0.20 0.20 96 997.7
20260905043201 13 182 6.4 14.5 0.18 0.18 0.18 96 997.6
20260905042701 13 214 6.4 9.7 0.00 0.15 0.15 96 997.8
20260905042200 13 242 6.4 11.3 0.00 0.15 0.15 96 997.7
20260905041656 13 242 6.4 11.3 0.00 0.15 0.15 95 998.0
20260905041151 13 219 4.8 12.9 0.00 0.15 0.15 95 997.7
20260905040646 13 215 4.8 9.7 0.13 0.15 0.15 95 997.6
20260905040140 13 254 6.4 9.7 0.00 0.13 0.13 95 997.6
20260905035634 13 244 11.3 14.5 0.00 0.13 0.13 95 997.8
20260905035131 13 245 6.4 9.7 0.00 0.13 0.13 95 997.9
20260905034627 13 249 12.9 17.7 0.00 0.13 0.13 95 997.9
20260905034126 13 239 9.7 17.7 0.00 0.13 0.13 95 998.2
20260905033625 13 251 9.7 16.1 0.00 0.13 0.13 95 998.2
20260905033121 13 250 9.7 11.3 0.00 0.13 0.13 95 998.0
20260905032621 13 242 11.3 14.5 0.00 0.13 0.13 95 997.9
20260905032121 13 248 12.9 16.1 0.00 0.13 0.13 95 997.6
20260905031617 13 259 12.9 16.1 0.00 0.13 0.13 95 997.8
20260905031117 13 256 9.7 12.9 0.00 0.13 0.13 95 997.7
20260905030612 13 274 8.0 14.5 0.00 0.13 0.13 95 997.8
20260905030108 13 245 11.3 14.5 0.00 0.13 0.13 95 997.8
20260905025608 13 265 9.7 16.1 0.00 0.13 0.13 95 997.7
20260905025104 13 270 12.9 14.5 0.00 0.13 0.13 95 997.6
20260905024600 13 277 12.9 16.1 0.00 0.13 0.13 95 997.6
20260905024055 13 267 8.0 12.9 0.00 0.13 0.13 95 997.4